Location: Unspecified
(40.7945°N, 111.1337°W)
Time: 07:50:54
(UTC-06:00)

Vanguard 1 - All Passes

Search period start: 25 June 2019 00:00
Search period end: 05 July 2019 00:00
Orbit: 654 x 3830 km, 34.2° (Epoch: 24 June)

Date Brightness Start Highest point End Pass type
(mag) Time Alt. Az. Time Alt. Az. Time Alt. Az.
25 Jun - 00:17:41 10° S 00:34:39 27° SE 00:48:11 10° E visible
25 Jun - 02:38:20 10° SW 02:58:49 51° SSE 03:11:35 10° E visible
25 Jun - 05:04:34 10° WSW 05:22:20 65° S 05:31:50 10° E visible
25 Jun - 07:31:48 10° W 07:43:52 48° SSW 07:50:36 10° SE daylight
25 Jun - 09:59:26 10° WSW 10:02:47 13° SW 10:05:33 10° SSW daylight
26 Jun - 00:36:47 10° SSW 00:55:46 34° SE 01:10:19 10° E visible
26 Jun - 02:59:14 10° SW 03:20:06 57° SSE 03:32:43 10° E visible
26 Jun - 05:26:11 10° W 05:43:30 65° S 05:52:43 10° ESE visible
26 Jun - 07:53:28 10° W 08:04:35 40° SSW 08:11:03 10° SE daylight
26 Jun - 22:41:48 10° SSE 22:53:03 16° SE 23:03:32 10° ESE visible
27 Jun - 00:56:30 10° SSW 01:16:56 41° SSE 01:32:02 10° E visible
27 Jun - 03:20:24 10° WSW 03:41:25 62° SSE 03:53:46 10° E visible
27 Jun - 05:47:52 10° W 06:04:37 63° S 06:13:33 10° ESE daylight
27 Jun - 08:15:16 10° W 08:25:11 32° SW 08:31:17 10° SSE daylight
27 Jun - 22:58:41 10° S 23:13:56 22° SE 23:27:44 10° E visible
28 Jun - 01:16:42 10° SW 01:38:09 48° SSE 01:53:29 10° E visible
28 Jun - 03:41:48 10° WSW 04:02:44 66° S 04:14:46 10° E visible
28 Jun - 06:09:35 10° W 06:25:39 59° SSW 06:34:16 10° ESE daylight
28 Jun - 08:37:17 10° W 08:45:37 24° SW 08:51:10 10° S daylight
28 Jun - 23:17:05 10° S 23:34:52 29° SE 23:50:33 10° E visible
29 Jun - 01:37:17 10° SW 01:59:26 54° SSE 02:14:46 10° E visible
29 Jun - 04:03:20 10° WSW 04:24:02 68° S 04:35:44 10° E visible
29 Jun - 06:31:19 10° W 06:46:35 52° SSW 06:54:55 10° SE daylight
29 Jun - 08:59:47 10° W 09:05:56 17° SW 09:10:28 10° S daylight
29 Jun - 21:29:08 10° SE 21:32:42 11° SE 21:36:16 10° ESE visible
29 Jun - 23:36:18 10° SSW 23:55:52 36° SE 00:12:41 10° E visible
30 Jun - 01:58:11 10° SW 02:20:45 60° SSE 02:35:58 10° E visible
30 Jun - 04:25:00 10° W 04:45:19 68° S 04:56:39 10° ESE visible
30 Jun - 06:53:06 10° W 07:07:21 45° SSW 07:15:22 10° SE daylight
30 Jun - 09:24:02 10° WSW 09:26:07 11° SW 09:28:00 10° SW daylight
30 Jun - 21:41:39 10° SSE 21:53:21 17° SE 22:05:02 10° E visible
30 Jun - 23:56:05 10° SSW 00:16:55 43° SSE 00:34:27 10° E visible
01 Jul - 02:19:20 10° WSW 02:42:08 65° SSE 02:57:05 10° E visible
01 Jul - 04:46:43 10° W 05:06:32 66° S 05:17:31 10° ESE visible
01 Jul - 07:14:58 10° W 07:27:58 37° SW 07:35:38 10° SSE daylight
01 Jul - 21:58:51 10° S 22:14:01 23° SE 22:29:10 10° E visible
02 Jul - 00:16:18 10° SW 00:38:05 50° SSE 00:55:58 10° E visible
02 Jul - 02:40:41 10° WSW 03:03:32 69° S 03:18:10 10° E visible
02 Jul - 05:08:29 10° W 05:27:40 62° SSW 05:38:18 10° ESE visible
02 Jul - 07:37:02 10° W 07:48:25 29° SW 07:55:34 10° SSE daylight
02 Jul - 22:17:23 10° S 22:34:45 30° SE 22:52:01 10° E visible
03 Jul - 00:36:52 10° SW 00:59:20 57° SSE 01:17:20 10° E visible
03 Jul - 03:02:12 10° WSW 03:24:58 70° S 03:39:12 10° E visible
03 Jul - 05:30:16 10° W 05:48:40 56° SSW 05:58:57 10° SE visible
03 Jul - 07:59:29 10° W 08:08:43 21° SW 08:15:03 10° S daylight
03 Jul - 20:30:04 10° SE 20:33:10 10° SE 20:36:20 10° ESE daylight
03 Jul - 22:36:41 10° SSW 22:55:34 37° SE 23:14:14 10° E visible
04 Jul - 00:57:44 10° SW 01:20:41 63° SSE 01:38:36 10° E visible
04 Jul - 03:23:50 10° W 03:46:21 70° S 04:00:11 10° ESE visible
04 Jul - 05:52:06 10° W 06:09:31 49° SSW 06:19:26 10° SE daylight
04 Jul - 08:22:48 10° W 08:28:52 15° SW 08:33:36 10° SSW daylight
04 Jul - 20:42:38 10° SSE 20:53:36 17° SE 21:05:23 10° E daylight
04 Jul - 22:56:30 10° SSW 23:16:30 45° SE 23:36:05 10° E visible
